Баутино

Казахстан     44°32′23″N   50°15′35″E
темп.,
°C
ветер,
м/с
пор.,
м/с
влажн.,
%
обл.,
%
осадки,
мм/ч
давл.,
гПа
погр.,
м
5 марта, пт
пт523:00+1юз45750 0.0 102551
02:00+1ююз56810 0.0 102469
05:00+1ююз56850 0.0 102345
08:00+2ю56860 0.0 102242
11:00+3ю688040 0.0 1022318
14:00+4ю5880100 0.0 1021350
17:00+4ююз577375 0.0 1020379
20:00+3ю34830 0.0 102125
6 марта, сб
сб623:00+3ю34830 0.0 102123
02:00+3ююз44893 0.0 102124
05:00+2ююз34934 0.0 102123
08:00+2ю45940 0.0 102125
11:00+5ю68840 0.0 1021226
14:00+6ю811730 0.0 1020287
17:00+6ю811740 0.0 1018264
20:00+5ююв912831 0.0 1016173
7 марта, вс
вс723:00+5ююв9139325 0.0 1014184
02:00+5ююв101495100 0.0 1012191
05:00+5ююв71096100 0.0 1011142
08:00+4зсз4599100 0.0 101345
11:00+1сз111684100 0.0 1018459
14:000сз10128479 0.0 1021855
17:000ссз6107785 0.0 1022753
20:00−1сз35800 0.0 1023263
8 марта, пн
пн823:00−2зюз12810 0.0 102447
02:00−1ю33710 0.0 102438
05:00−1ю44720 0.0 102448
08:00−1ююз33610 0.0 102423
11:00+1ююз45540 0.0 1024420
14:00+2ююз56560 0.0 1023485
17:00+2ююз56640 0.0 1021464
20:00+1ю44690 0.0 102063
9 марта, вт
вт923:00+1ю34680 0.0 102023
02:00−1ююз00755 0.0 101922
05:00−1юв117510 0.0 101921
08:00−1вюв11750 0.0 101822
11:00+1ююв116332 0.0 1019165
14:00+2з215731 0.0 1018373
17:00+2сз226016 0.0 1017229
20:00+1вюв00680 0.0 101622